Погода в Новом

Россия / Республика Марий Эл     56°40′16″N   47°49′27″E
темп.,
°C
ветер,
м/с
пор.,
м/с
влажн.,
%
обл.,
%
осадки,
мм/ч
давл.,
гПа
погр.,
м
9 марта, вт
вт900:00−13зсз339741 0.0 100256
03:00−16зсз239841 0.0 100521
06:00−16зсз229898 0.1 100623
09:00−12с139397 0.1 1008250
12:00−9ссв2387100 0.1 1009526
15:00−10с3590100 0.3 1010535
18:00−12с3795100 0.2 1011290
21:00−14с499497 0.3 1012364
10 марта, ср
ср1000:00−15с499494 0.1 1013406
03:00−20с499596 0.1 1014316
06:00−23с499599 0.1 1016317
09:00−23с499294 0.1 1018383
12:00−19с488873 0.0 1019494
15:00−17с488143 0.0 1020653
18:00−20ссз35920 0.0 102183
21:00−22сз36960 0.0 1022107
11 марта, чт
чт1100:00−20сз389878 0.0 1023215
03:00−22зсз379873 0.1 1023145
06:00−19зсз4119692 0.1 1022345
09:00−16сз489296 0.3 1022487
12:00−12сз4889100 0.1 1022577
15:00−9сз5990100 0.1 1023595
18:00−10сз41292100 0.1 1023457
21:00−12сз4119363 0.1 1025303
12 марта, пт
пт1200:00−14зсз4109665 0.0 1026218
03:00−16зсз389668 0.0 1027183
06:00−18з389771 0.0 1028146
09:00−15з379385 0.0 1029276
12:00−10з478492 0.0 1029474
15:00−8з488369 0.0 1029673
18:00−12зюз36901 0.0 1029117
21:00−14юз410920 0.0 1030225
13 марта, сб
сб1300:00−16зюз411880 0.0 1030233
03:00−16юз38940 0.0 1031167
06:00−18ююз38900 0.0 1031153
09:00−13ююз48870 0.0 1031312
12:00−8ююз510810 0.0 1030552
15:00−6ююз510810 0.0 1028760
18:00−10ю412870 0.0 1027457
21:00−11ю5138920 0.0 1026594